Wind_Speed
4 4 3 3 3 3 2 2 2 2 2 2 3 3 3 4 3 4 4 4 4 4 5 5 6 4 4 4 4 4 4 4 3 3 3 3 3 3 3 3 3 4 4
5 4 4 4 4 4 3 3 4 3 3 3 4 4 4 4 5 5 5 4 4 4 3 4 5 4 5 4 5 5 5 5 4 4 4 3 4 4 4 4 4 4 4
5 5 5 5 5 4 4 4 4 4 4 4 4 5 5 5 5 6 5 5 5 5 4 4 5 5 6 6 6 6 6 6 6 5 5 5 5 5 5 5 6 6 6
5 5 5 5 5 5 5 5 5 5 5 5 5 5 6 6 6 6 6 6 6 6 5 5 6 6 7 8 7 6 6 6 7 7 6 6 6 6 6 7 7 7 7
6 6 6 6 6 5 5 6 6 5 5 6 6 6 6 7 7 7 8 7 7 7 7 6 6 7 7 8 8 8 7 8 8 8 7 7 7 7 7 7 8 8 8
6 6 6 7 6 6 6 7 7 6 7 7 7 7 7 8 8 8 9 9 9 8 8 7 7 8 8 8 9 9 9 9 8 9 9 9 9 8 8 8 9 9 9
7 7 7 7 7 7 7 8 8 8 8 8 8 8 9 9 9 10 10 10 10 10 9 9 9 9 9 9 9 10 10 10 10 9 9 10 10 10 9 9 9 9 9
7 7 7 7 8 8 8 9 9 9 9 9 9 10 10 10 11 11 11 11 11 11 11 11 11 11 10 10 10 10 11 11 11 11 11 10 10 10 10 10 10 10 11
8 8 8 8 8 9 9 9 10 9 9 9 10 10 11 11 11 11 12 12 12 12 12 12 11 11 11 11 11 11 12 12 11 11 11 11 11 11 12 11 11 11 11
8 8 8 9 9 9 10 10 10 10 9 10 10 11 11 11 11 11 12 12 12 12 12 12 12 12 12 12 12 13 13 13 13 12 12 12 12 12 13 13 13 13 13
8 8 9 8 8 9 9 10 10 9 9 9 10 10 10 11 11 11 12 12 12 12 13 13 13 14 14 13 13 13 13 13 13 13 14 14 13 13 13 14 14 15 14
8 8 9 8 8 8 9 9 9 9 9 9 10 10 10 10 11 11 11 12 12 12 13 13 13 13 13 13 13 13 13 14 14 15 14 14 14 14 14 14 15 15 15
9 9 9 8 8 8 9 9 9 9 9 9 9 9 10 11 11 11 11 11 11 11 12 12 13 13 13 14 14 14 15 15 14 15 14 14 14 14 14 14 14 14 14
10 10 10 10 9 9 9 10 10 10 10 10 11 11 11 10 11 11 11 11 11 11 11 11 12 13 14 15 16 16 16 15 15 15 14 14 14 14 14 14 14 15 15
11 10 10 10 10 10 11 11 11 11 11 12 12 12 12 12 12 12 12 12 12 13 12 12 12 13 14 15 16 16 16 16 16 15 15 15 14 15 15 15 15 16 16
11 11 11 11 11 11 12 11 11 12 12 12 13 13 13 13 13 13 13 14 14 14 14 13 14 14 15 15 16 16 16 16 17 16 16 16 16 16 16 16 16 17 17
11 11 11 11 11 12 12 12 12 12 13 13 13 14 14 14 14 14 14 15 15 15 16 15 15 16 16 16 16 17 16 16 16 16 16 16 16 17 17 16 16 16 16
11 11 11 11 11 12 12 12 12 13 13 14 15 15 15 15 16 16 16 16 16 16 17 16 16 16 16 17 17 17 17 16 16 16 16 16 17 17 17 17 17 17 17
11 12 12 12 12 12 13 13 13 14 14 15 16 16 16 17 17 17 17 17 17 17 17 17 17 17 17 17 17 17 16 16 16 16 16 16 17 17 17 17 17 17 17
12 12 13 12 13 13 13 14 14 15 15 16 17 17 17 17 17 17 18 18 18 18 18 18 18 18 18 17 17 17 17 17 16 16 16 16 17 17 17 17 17 17 17
12 13 13 13 14 14 14 15 15 16 16 16 17 17 17 17 17 17 18 19 19 19 19 18 18 18 18 18 18 17 18 18 18 18 17 17 17 17 17 17 17 17 16
13 13 13 13 14 14 14 15 15 16 17 17 18 18 18 18 19 19 19 19 19 20 20 19 19 18 18 18 18 18 18 18 18 18 17 17 17 17 16 17 17 17 17
14 14 14 14 14 14 14 15 16 16 17 18 19 19 19 20 20 20 20 20 20 20 20 20 20 20 19 19 20 19 18 18 18 18 17 17 17 17 17 16 17 17 17
15 15 15 15 15 15 16 17 18 18 18 19 20 20 21 21 21 21 21 22 22 21 21 21 21 21 21 20 20 20 20 19 18 17 18 17 17 16 16 16 17 17 17
15 16 16 16 16 16 17 17 18 19 19 20 20 20 21 21 22 22 23 23 22 22 22 22 22 22 21 21 20 20 20 19 18 18 18 18 18 17 17 17 16 17 17
15 16 16 16 17 17 18 18 18 19 20 20 20 20 21 22 22 23 23 23 23 23 22 22 22 22 22 21 21 20 20 19 19 18 18 18 18 19 18 18 17 17 18
Wind_Direction
244 239 244 254 252 251 257 247 243 242 245 247 234 233 238 235 242 258 266 284 290 283 257 233 227 226 232 237 246 249 260 254 256 266 267 265 272 268 267 265 276 283 288
244 243 254 262 256 256 262 260 255 254 256 266 256 252 257 254 255 267 273 283 294 297 280 238 229 241 242 250 255 259 267 263 263 269 268 272 274 273 273 271 273 276 283
241 249 259 261 256 257 261 263 261 257 259 263 267 265 268 269 268 272 274 285 292 292 270 249 246 253 251 260 263 264 267 268 272 271 265 273 278 278 277 273 273 276 277
244 253 259 257 255 260 264 267 265 263 265 266 266 266 268 270 272 276 278 283 285 286 275 260 258 260 260 261 266 267 266 268 271 276 274 272 274 278 276 274 276 277 279
250 250 255 253 253 258 263 267 268 268 272 272 267 267 272 272 272 275 278 280 282 279 275 267 265 270 269 267 268 270 270 272 272 273 275 272 276 278 276 275 276 277 277
249 254 256 254 253 257 263 269 271 273 272 273 271 270 273 274 273 276 277 277 281 279 273 269 271 273 270 270 273 272 273 273 274 271 272 275 279 277 276 278 278 280 278
250 258 260 259 257 260 266 269 273 276 276 275 274 273 273 274 277 279 279 278 279 280 280 276 275 272 270 272 270 270 269 270 276 274 275 281 283 279 279 283 281 286 282
250 258 262 263 260 263 268 273 277 277 274 274 275 275 274 272 273 276 278 277 279 279 280 282 281 275 271 267 269 271 271 272 273 274 280 282 283 283 280 282 284 286 288
254 258 261 264 265 266 270 275 280 278 276 275 277 276 274 273 273 275 276 277 277 279 280 281 280 277 276 272 270 271 273 274 274 275 278 281 283 282 281 279 281 283 286
261 262 261 264 266 269 272 275 280 278 277 278 279 278 276 274 273 273 275 275 275 276 278 279 280 280 280 275 273 272 272 273 275 274 277 281 283 284 283 280 281 285 285
264 267 268 267 269 272 274 276 278 279 278 280 282 282 280 278 275 275 275 275 275 274 276 277 279 279 279 278 277 276 275 275 278 277 277 279 282 283 282 283 283 285 286
266 269 274 273 277 279 279 278 277 279 281 281 281 281 284 284 282 283 279 278 277 278 277 276 276 277 278 279 278 277 278 278 281 282 283 282 282 281 280 281 284 284 284
269 272 276 276 278 281 282 282 283 282 284 284 287 291 290 286 284 283 281 283 285 284 282 283 280 278 279 279 279 279 280 282 283 286 288 284 280 278 278 279 283 285 284
269 271 273 274 275 277 281 281 283 286 287 288 290 293 292 291 291 288 288 288 288 288 290 289 286 282 282 282 281 281 283 285 285 285 286 283 279 277 277 278 279 282 285
269 272 273 271 272 276 279 281 284 286 287 287 289 291 291 289 290 289 287 288 292 292 292 289 286 286 287 287 284 283 284 284 284 283 283 283 280 277 278 278 280 282 284
271 272 272 272 273 276 278 280 285 286 286 287 289 290 291 290 288 286 286 286 287 289 290 288 288 287 288 288 286 284 284 284 283 282 282 282 282 281 281 280 280 280 283
272 272 272 272 274 277 281 282 283 287 288 288 289 289 289 287 286 285 285 284 284 285 286 285 286 288 287 286 285 285 285 284 283 283 283 283 283 280 277 278 281 283 283
273 272 273 274 276 279 282 283 285 288 291 290 289 288 287 286 285 284 284 283 282 283 283 283 284 286 285 285 285 284 283 282 281 282 282 282 282 283 281 279 280 281 283
271 273 274 276 278 281 280 283 287 290 292 293 291 289 287 285 284 283 283 283 282 282 282 283 284 284 284 284 284 283 281 280 280 280 279 279 280 281 282 281 278 278 280
269 270 273 276 280 281 280 284 288 292 295 297 295 291 289 288 287 285 282 282 281 281 281 283 284 283 283 283 282 281 281 280 280 279 280 280 281 282 282 281 279 278 279
271 269 273 277 280 283 282 285 286 290 295 298 297 294 290 289 289 288 286 284 282 281 282 283 283 283 282 280 280 281 281 279 279 280 280 281 283 283 282 280 279 280 280
271 272 274 280 281 284 286 287 288 291 293 295 295 294 291 289 288 288 288 287 285 282 282 282 282 281 280 278 278 280 281 280 280 280 280 281 282 283 283 281 279 279 280
269 272 275 280 282 284 285 287 290 292 294 294 293 292 290 288 285 286 285 285 286 285 283 282 281 279 278 279 278 278 279 279 280 280 279 280 281 282 283 281 279 279 278
270 274 278 280 282 284 286 287 288 291 294 295 293 291 290 290 286 284 284 285 286 285 283 283 283 280 277 277 278 277 278 277 279 280 279 278 279 280 281 280 279 277 278
271 274 278 281 284 286 288 289 291 293 293 294 294 292 291 291 289 286 285 284 285 285 285 284 283 281 278 276 276 276 276 276 277 278 277 275 277 278 277 277 277 277 278
271 274 278 281 284 286 287 290 293 294 294 294 294 293 292 293 291 288 286 285 285 286 285 283 281 280 278 276 274 274 273 274 276 276 276 275 276 277 276 275 276 277 277
Height
5869 5869 5869 5869 5870 5870 5871 5871 5871 5871 5872 5872 5872 5872 5872 5872 5873 5872 5872 5872 5871 5870 5868 5868 5870 5872 5873 5874 5874 5874 5874 5874 5874 5874 5874 5874 5874 5874 5874 5874 5875 5875 5875
5868 5868 5869 5869 5870 5870 5871 5871 5871 5871 5871 5872 5872 5872 5872 5872 5872 5872 5872 5872 5871 5870 5868 5869 5870 5872 5873 5873 5874 5874 5874 5874 5874 5874 5874 5874 5874 5874 5874 5874 5874 5875 5875
5868 5868 5869 5869 5869 5870 5870 5870 5870 5871 5871 5871 5871 5872 5872 5872 5872 5872 5872 5872 5871 5871 5870 5870 5871 5872 5873 5873 5873 5873 5873 5873 5873 5873 5874 5874 5874 5874 5874 5874 5874 5874 5874
5867 5868 5868 5868 5869 5869 5869 5870 5870 5870 5870 5871 5871 5871 5871 5871 5871 5871 5871 5871 5871 5871 5871 5871 5871 5872 5872 5872 5872 5872 5872 5873 5873 5873 5873 5873 5873 5873 5873 5873 5873 5873 5873
5867 5867 5867 5867 5868 5868 5869 5869 5869 5869 5870 5870 5870 5870 5870 5870 5871 5871 5870 5871 5871 5871 5871 5871 5871 5871 5871 5871 5872 5872 5871 5871 5872 5872 5872 5872 5872 5872 5872 5872 5872 5872 5872
5866 5866 5866 5867 5867 5867 5868 5868 5868 5868 5869 5869 5869 5869 5869 5869 5869 5870 5870 5870 5870 5870 5870 5870 5870 5870 5870 5870 5870 5870 5870 5870 5870 5870 5871 5870 5870 5870 5870 5870 5870 5870 5870
5865 5865 5866 5866 5866 5866 5867 5867 5867 5867 5867 5867 5867 5868 5868 5868 5868 5868 5868 5868 5868 5868 5868 5869 5869 5869 5869 5869 5869 5869 5869 5869 5869 5869 5869 5869 5869 5869 5869 5868 5868 5869 5869
5864 5865 5865 5865 5865 5865 5865 5866 5866 5866 5866 5866 5866 5866 5866 5866 5866 5866 5866 5866 5867 5867 5867 5867 5867 5867 5867 5867 5867 5867 5867 5867 5867 5867 5867 5867 5868 5868 5867 5867 5867 5867 5867
5863 5864 5864 5864 5864 5864 5864 5864 5864 5864 5864 5864 5864 5864 5864 5864 5864 5864 5864 5865 5865 5865 5865 5865 5865 5865 5865 5865 5865 5865 5865 5865 5865 5865 5865 5865 5865 5865 5865 5865 5865 5865 5865
5862 5862 5863 5863 5863 5863 5863 5863 5863 5863 5863 5863 5863 5863 5863 5863 5863 5863 5863 5863 5863 5863 5863 5863 5863 5863 5863 5863 5863 5863 5863 5863 5863 5863 5863 5863 5863 5863 5863 5863 5863 5863 5863
5861 5861 5861 5862 5862 5862 5862 5862 5862 5862 5862 5862 5862 5861 5861 5861 5861 5861 5861 5861 5860 5861 5861 5861 5861 5861 5860 5860 5860 5860 5860 5861 5861 5861 5860 5860 5860 5860 5860 5860 5860 5860 5861
5860 5860 5860 5860 5860 5860 5860 5860 5860 5860 5860 5860 5860 5860 5859 5859 5859 5859 5859 5858 5858 5858 5858 5858 5858 5858 5858 5858 5858 5858 5858 5858 5858 5858 5857 5857 5857 5857 5857 5857 5857 5857 5858
5858 5858 5858 5859 5859 5859 5859 5859 5859 5859 5859 5859 5858 5858 5858 5857 5857 5857 5857 5856 5856 5856 5856 5856 5856 5856 5856 5855 5855 5855 5855 5855 5855 5855 5854 5854 5854 5854 5854 5855 5855 5855 5855
5857 5857 5857 5857 5857 5857 5857 5857 5857 5857 5857 5857 5857 5856 5856 5855 5855 5855 5854 5854 5854 5854 5854 5853 5853 5853 5853 5853 5852 5852 5852 5852 5852 5852 5852 5852 5851 5851 5851 5852 5852 5852 5852
5855 5855 5855 5855 5855 5855 5855 5855 5855 5855 5855 5854 5854 5854 5854 5853 5853 5853 5852 5852 5852 5852 5851 5851 5851 5850 5850 5850 5849 5849 5849 5849 5848 5848 5848 5849 5848 5848 5848 5848 5849 5849 5849
5852 5853 5853 5853 5853 5853 5853 5853 5853 5853 5853 5852 5852 5852 5851 5851 5851 5850 5850 5850 5849 5849 5849 5849 5848 5848 5847 5847 5846 5846 5846 5846 5845 5845 5845 5845 5845 5845 5845 5845 5845 5845 5846
5850 5850 5851 5851 5851 5851 5851 5851 5851 5851 5850 5850 5850 5849 5848 5848 5848 5847 5847 5847 5847 5846 5846 5845 5845 5844 5844 5844 5843 5843 5842 5842 5842 5842 5842 5842 5842 5842 5841 5841 5842 5842 5842
5848 5848 5848 5849 5849 5849 5849 5849 5848 5848 5848 5847 5847 5846 5845 5845 5844 5844 5844 5843 5843 5843 5842 5842 5841 5841 5840 5840 5839 5839 5839 5838 5838 5838 5838 5838 5838 5838 5838 5838 5838 5838 5838
5846 5846 5846 5846 5846 5846 5846 5846 5846 5846 5845 5844 5843 5843 5842 5841 5841 5840 5840 5840 5839 5839 5838 5838 5838 5837 5837 5836 5836 5835 5835 5835 5834 5834 5834 5834 5834 5834 5834 5834 5834 5834 5834
5843 5844 5844 5844 5844 5844 5844 5844 5843 5843 5842 5841 5840 5839 5838 5837 5837 5836 5836 5836 5835 5835 5834 5834 5834 5833 5833 5832 5832 5831 5831 5831 5831 5830 5830 5830 5830 5830 5830 5830 5830 5830 5830
5841 5841 5841 5841 5841 5841 5841 5841 5840 5839 5839 5838 5837 5835 5834 5834 5833 5832 5832 5831 5831 5831 5830 5830 5829 5829 5828 5828 5828 5827 5827 5826 5826 5826 5826 5826 5826 5826 5826 5826 5826 5826 5826
5838 5838 5838 5838 5838 5838 5838 5837 5837 5836 5835 5834 5833 5832 5831 5830 5829 5828 5828 5827 5826 5826 5826 5825 5825 5824 5823 5823 5823 5822 5822 5823 5822 5822 5822 5821 5822 5821 5821 5821 5821 5822 5822
5835 5835 5835 5835 5835 5835 5834 5834 5833 5832 5831 5830 5829 5828 5827 5825 5824 5824 5823 5822 5822 5821 5820 5820 5820 5819 5818 5818 5818 5818 5818 5817 5817 5817 5817 5817 5817 5817 5817 5817 5817 5817 5818
5832 5832 5832 5832 5832 5831 5831 5830 5829 5828 5827 5826 5824 5823 5822 5821 5820 5819 5818 5817 5816 5816 5815 5814 5814 5814 5813 5813 5813 5812 5813 5812 5813 5812 5812 5812 5812 5812 5812 5812 5812 5812 5813
5828 5828 5828 5828 5828 5828 5827 5826 5825 5824 5822 5821 5820 5818 5817 5816 5814 5813 5812 5812 5811 5810 5809 5809 5808 5808 5807 5807 5807 5807 5807 5807 5807 5807 5807 5807 5807 5807 5808 5808 5807 5807 5808
5825 5825 5824 5824 5824 5823 5823 5822 5821 5819 5818 5816 5815 5814 5812 5811 5809 5808 5807 5806 5805 5804 5803 5803 5802 5802 5801 5801 5802 5802 5802 5802 5801 5801 5801 5802 5802 5803 5803 5803 5802 5802 5803